DW6979 Svarstad NO current weather conditions

sailwx.info

Wind from 281

Air temperature 0.6° C
Dewpoint -18.2° C

Last reported at 2020-Jan-26 01:00 UTC.
Time now 2020-Jan-26 01:56 UTC

Location: N 59°26' E 010°00'.
View on Google Maps.

See reports from other nearby stations

  
Tides and Currents Weather Stations Pressure Air Temp Water Temp Dewpoint Dewpoint Depression Visibility Wind Speed Wind Dir Waves Ship Positions
date/time (UTC)wind fromknots sea level pressurealtimeterstation pressurevisibilityair tempwater tempwave heightnotes
2020-Jan-26 01:00 281 0.6
2020-Jan-26 00:45 281 1.1
2020-Jan-26 00:30 281 1.1
2020-Jan-26 00:17 281 1.1
2020-Jan-26 00:01 281 1.7
2020-Jan-25 23:46 282 1.1
2020-Jan-25 23:31 281 1.1
2020-Jan-25 23:16 281 1.1
2020-Jan-25 23:02 281 1.7
2020-Jan-25 22:46 281 1.7
2020-Jan-25 22:31 281 1.7
2020-Jan-25 22:16 281 1.7
2020-Jan-25 22:01 280 2.2
2020-Jan-25 21:46 182 2.8
2020-Jan-25 21:31 182 3.9
2020-Jan-25 21:15 182 5.0
2020-Jan-25 21:01 188 5.6
2020-Jan-25 20:46 200 3 gusting 6 5.6
2020-Jan-25 20:31 180 0 gusting 7 5.6
2020-Jan-25 20:17 185 2 gusting 5 5.0
2020-Jan-25 20:00 166 3.9
2020-Jan-25 19:45 154 3.3
2020-Jan-25 19:31 265 2.2
2020-Jan-25 19:16 005 1.7
2020-Jan-25 19:00 013 2.2
2020-Jan-25 18:45 267 1.7
2020-Jan-25 18:31 209 1.7
2020-Jan-25 18:15 135 2.2
2020-Jan-25 18:00 034 1.7
2020-Jan-25 17:45 005 2.2
2020-Jan-25 17:31 005 2.2
2020-Jan-25 17:15 360 2.2
2020-Jan-25 17:00 126 2.8
2020-Jan-25 16:45 126 3.3
2020-Jan-25 16:30 175 3.9
2020-Jan-25 16:16 156 0 gusting 3 3.9
2020-Jan-25 16:00 170 1 gusting 7 3.9
2020-Jan-25 15:45 190 1 gusting 9 3.9
2020-Jan-25 15:30 190 3.9
2020-Jan-25 15:03 186 1 gusting 6 3.3
2020-Jan-25 14:47 183 1 gusting 5 3.3
2020-Jan-25 14:32 184 3.9
2020-Jan-25 14:17 177 3.3
2020-Jan-25 14:03 177 3.3
2020-Jan-25 13:46 188 3.3
2020-Jan-25 13:32 187 2.8
2020-Jan-25 13:16 165 3.3
2020-Jan-25 13:01 167 2 gusting 4 2.8
2020-Jan-25 12:47 188 0 gusting 4 2.8
2020-Jan-25 12:32 163 0 gusting 5 2.8
2020-Jan-25 12:16 178 2.2
2020-Jan-25 12:01 180 2.2
2020-Jan-25 11:47 169 1 gusting 3 2.8
2020-Jan-25 11:32 159 1 gusting 4 2.8
2020-Jan-25 11:16 144 2 gusting 5 3.3
2020-Jan-25 11:02 163 3 gusting 6 2.8
2020-Jan-25 10:46 164 1.7
2020-Jan-25 10:31 143 0.6
2020-Jan-25 10:16 212 -0.0
2020-Jan-25 10:00 212 -0.0
2020-Jan-25 09:46 212 -0.6
2020-Jan-25 09:31 207 0 gusting 2 -1.1
2020-Jan-25 09:15 221 -1.1
2020-Jan-25 09:00 221 -1.1
2020-Jan-25 08:46 302 -1.7
2020-Jan-25 08:31 302 -1.7
2020-Jan-25 08:16 302 -1.7
2020-Jan-25 08:00 302 -1.7
2020-Jan-25 07:45 302 -1.7
2020-Jan-25 07:30 302 -1.7
2020-Jan-25 07:15 302 -1.7
2020-Jan-25 07:00 302 -1.7
2020-Jan-25 06:45 302 -1.7
2020-Jan-25 06:30 302 -1.7
2020-Jan-25 06:15 301 -1.7
2020-Jan-25 06:00 297 -1.7
2020-Jan-25 05:45 302 -1.7
2020-Jan-25 05:32 302 -1.7
2020-Jan-25 05:16 217 -1.7
2020-Jan-25 05:02 175 -1.7
2020-Jan-25 04:46 155 -2.2
2020-Jan-25 04:31 021 -2.2
2020-Jan-25 04:17 208 -1.7
2020-Jan-25 04:01 207 -1.7
2020-Jan-25 03:48 198 -2.2
2020-Jan-25 03:31 204 -2.8
2020-Jan-25 03:16 146 -3.3
2020-Jan-25 03:02 146 -3.3
2020-Jan-25 02:46 146 -3.3
2020-Jan-25 02:31 044 -3.3
2020-Jan-25 02:16 038 -2.8
2020-Jan-25 02:01 038 -2.8
2020-Jan-25 01:47 038 -2.8
2020-Jan-25 01:31 040 -2.8
2020-Jan-25 01:16 040 -2.8
2020-Jan-25 01:01 015 -2.2
2020-Jan-25 00:46 015 -2.8
2020-Jan-25 00:30 020 -2.2
2020-Jan-25 00:16 020 -2.2
2020-Jan-25 00:01 020 -2.2
2020-Jan-24 23:45 033 -2.2
2020-Jan-24 23:30 319 -2.2
2020-Jan-24 23:16 317 -2.2
2020-Jan-24 23:00 305 -2.2
2020-Jan-24 22:45 174 -2.2
2020-Jan-24 22:30 174 -1.7
2020-Jan-24 22:15 174 -1.1
2020-Jan-24 22:00 174 -0.6
2020-Jan-24 21:47 174 -0.6
2020-Jan-24 21:33 174 -0.0
2020-Jan-24 21:16 169 1 gusting 3 -0.6
2020-Jan-24 21:02 209 -1.1
2020-Jan-24 20:46 209 -1.1
2020-Jan-24 20:31 209 -1.1
2020-Jan-24 20:16 209 -1.1
2020-Jan-24 20:01 209 -1.1
2020-Jan-24 19:45 209 -1.1
2020-Jan-24 19:31 209 -0.6
2020-Jan-24 19:15 225 -0.6
2020-Jan-24 19:01 161 -0.6
2020-Jan-24 18:45 161 -0.6
2020-Jan-24 18:30 234 -0.6
2020-Jan-24 18:18 182 -0.0
2020-Jan-24 18:01 182 -0.0
2020-Jan-24 17:47 211 -0.0
2020-Jan-24 17:31 211 0.6
2020-Jan-24 17:16 211 0.6
2020-Jan-24 17:02 211 1.1
2020-Jan-24 16:46 134 1.7
2020-Jan-24 16:30 250 2.8
2020-Jan-24 16:17 192 3.3
2020-Jan-24 16:00 184 4.4
2020-Jan-24 15:46 184 5.6
2020-Jan-24 15:30 338 7.2
2020-Jan-24 15:15 300 7.8
2020-Jan-24 15:00 167 7.8
2020-Jan-24 14:48 204 7.8
2020-Jan-24 14:31 213 1 gusting 7 7.8
2020-Jan-24 14:16 227 2 gusting 10 7.8
2020-Jan-24 14:02 156 8.3
2020-Jan-24 13:47 246 8.3
2020-Jan-24 13:32 134 1 gusting 10 8.3
2020-Jan-24 13:15 175 4 gusting 9 7.8
2020-Jan-24 13:00 195 0 gusting 8 7.8
2020-Jan-24 12:46 194 2 gusting 4 6.7
2020-Jan-24 12:30 169 1 gusting 7 6.7
2020-Jan-24 12:16 167 2 gusting 6 6.7
2020-Jan-24 12:00 167 1 gusting 6 6.1
2020-Jan-24 11:45 169 1 gusting 4 6.1
2020-Jan-24 11:32 171 3 gusting 6 5.6
2020-Jan-24 11:17 163 2 gusting 6 5.6
2020-Jan-24 11:02 170 2 gusting 7 5.6
2020-Jan-24 10:46 132 4 gusting 10 3.9
2020-Jan-24 10:31 169 3 gusting 7 3.3
2020-Jan-24 10:17 209 0 gusting 2 2.8
2020-Jan-24 10:00 169 0 gusting 4 2.2
2020-Jan-24 09:46 156 1 gusting 6 1.7
2020-Jan-24 09:30 179 4 gusting 6 1.1
2020-Jan-24 09:15 219 -0.0
2020-Jan-24 09:00 172 2 gusting 6 1.1
2020-Jan-24 08:45 192 1 gusting 3 -0.0
2020-Jan-24 08:30 198 -0.0
2020-Jan-24 08:15 178 -0.0
2020-Jan-24 08:02 194 -0.0
2020-Jan-24 07:47 177 -0.6
2020-Jan-24 07:31 215 -0.0
2020-Jan-24 07:16 215 0.6
2020-Jan-24 07:01 186 0 gusting 6 0.6
2020-Jan-24 06:46 144 3 gusting 6 -0.0
2020-Jan-24 06:31 204 -1.1
2020-Jan-24 06:15 155 -0.6
2020-Jan-24 06:00 155 -0.6
2020-Jan-24 05:45 155 0 gusting 4 -0.0
2020-Jan-24 05:31 219 0.6
2020-Jan-24 05:15 194 0 gusting 6 -0.0
2020-Jan-24 05:00 186 -0.0
2020-Jan-24 04:46 202 -0.0
2020-Jan-24 04:32 192 0 gusting 3 -0.0
2020-Jan-24 04:18 214 -0.0
2020-Jan-24 04:03 214 -0.0
2020-Jan-24 03:46 214 0.6
2020-Jan-24 03:31 200 0.6
2020-Jan-24 03:16 200 0.6
2020-Jan-24 03:01 200 1.1
2020-Jan-24 02:47 201 0 gusting 4 1.7
2020-Jan-24 02:31 184 3 gusting 7 1.7
2020-Jan-24 02:16 200 0.6
2020-Jan-24 02:01 210 0.6
2020-Jan-24 01:45 173 1.1
2020-Jan-24 01:31 180 1.1
2020-Jan-24 01:16 180 1.1
2020-Jan-24 01:00 197 1.1